Location: Forestville
(38.4740°N, 122.8890°W)
Time: 20:42:18
(UTC-07:00)

Amateur Radio Satellites - All Passes

Search period start: 25 June 2017 20:12
Search period end: 26 June 2017 20:12
Location: Forestville, 38.4740°N, 122.8890°W

Satellite Date Start Highest point End Downlink Frequencies (MHz)
Time Altitude Azimuth
AAUSAT CUBESAT 2 25 Jun 20:31:17 20:35:24 78° 76° (ENE) 20:39:32 437.432
Oscar 11 25 Jun 20:31:55 20:35:39 29° 70° (ENE) 20:39:24 .
PCSat 25 Jun 20:34:57 20:38:45 19° 47° (NE) 20:42:33 145.827
ZACube-1 25 Jun 20:39:17 20:43:42 52° 73° (ENE) 20:48:10 437.345
UWE-3 25 Jun 20:44:42 20:49:16 76° 259° (WSW) 20:53:57 435.000/436.395/437.385
HO-68 25 Jun 20:50:25 20:56:43 33° 263° (W) 21:03:05 435.675
O/OREOS (USA 219) 25 Jun 20:55:35 20:58:10 15° 99° (E) 21:00:43 437.305
XW-2A 25 Jun 20:58:56 21:00:43 14° 267° (W) 21:02:31 145.665 - 145.685
NO-84 25 Jun 21:17:52 21:21:04 27° 125° (SE) 21:24:31 435.350 FM
EO-88 25 Jun 21:18:19 21:20:13 14° 67° (ENE) 21:22:07 145.990 - 145.960
SEEDS 25 Jun 21:18:46 21:20:57 14° 268° (W) 21:23:09 437.485
STRAND 1 25 Jun 21:19:15 21:24:07 43° 289° (WNW) 21:28:58 437.568
BEESAT 3 25 Jun 21:23:38 21:27:36 84° 119° (ESE) 21:31:38 437.485
AO-85 25 Jun 21:33:44 21:37:37 41° 305° (NW) 21:41:23 145.980
AO-73 25 Jun 21:40:30 21:44:41 36° 263° (W) 21:48:56 145.935
DELFI C3 25 Jun 21:55:35 21:59:27 65° 76° (ENE) 22:03:21 145.870
M-CUBED/EXP-1 PRIME 25 Jun 21:57:15 21:59:28 15° 100° (E) 22:01:45 437.505
FO-29 25 Jun 22:02:35 22:09:28 32° 94° (E) 22:16:09 435.910
Oscar 11 25 Jun 22:08:19 22:11:45 23° 265° (W) 22:15:12 .
YUBILEINY 25 Jun 22:16:21 22:24:57 63° 91° (E) 22:33:38 435.215
PRISM 25 Jun 22:16:25 22:19:09 17° 94° (E) 22:21:53 437.425
PCSat 25 Jun 22:17:16 22:22:39 66° 245° (WSW) 22:28:00 145.827
ZACube-1 25 Jun 22:17:54 22:20:15 14° 269° (W) 22:22:37 437.345
RS-15 25 Jun 22:21:52 22:33:58 69° 305° (NW) 22:46:21 29.354- 29.394
BEESAT 2 25 Jun 22:23:19 22:27:15 62° 303° (WNW) 22:31:15 435.950
TIGRISAT 25 Jun 22:29:14 22:33:04 25° 95° (E) 22:36:48 435.000
O/OREOS (USA 219) 25 Jun 22:32:44 22:37:07 47° 295° (WNW) 22:41:30 437.305
EO-88 25 Jun 22:50:11 22:53:33 35° 262° (W) 22:56:58 145.990 - 145.960
SO-50 25 Jun 22:50:39 22:54:24 25° 49° (NE) 22:58:09 436.795
ESTCUBE 1 25 Jun 22:54:17 22:57:28 19° 67° (ENE) 23:00:40 437.505/2401.250
NO-84 25 Jun 22:54:50 22:58:31 36° 324° (NW) 23:02:26 435.350 FM
BEESAT 3 25 Jun 23:04:40 23:05:44 11° 318° (NW) 23:06:49 437.485
UNISAT 6 25 Jun 23:10:50 23:15:31 79° 103° (ESE) 23:20:03 437.425
LO-87 25 Jun 23:11:33 23:14:56 43° 74° (ENE) 23:18:21 145.935 - 145.965
M-CUBED/EXP-1 PRIME 25 Jun 23:30:27 23:33:56 38° 292° (WNW) 23:37:41 437.505
FO-29 25 Jun 23:47:03 23:54:36 53° 290° (WNW) 00:02:03 435.910
PRISM 25 Jun 23:50:46 23:54:29 34° 289° (WNW) 23:58:12 437.425
POLYITAN 1 25 Jun 23:56:22 23:58:20 13° 92° (E) 00:00:18 437.675
TIGRISAT 26 Jun 00:05:40 00:09:41 30° 291° (WNW) 00:13:38 435.000
QB50P2 26 Jun 00:06:18 00:09:20 19° 94° (E) 00:12:21 145.880/145.840
AIST 2D 26 Jun 00:10:09 00:13:28 40° 98° (E) 00:16:45 435.315
YUBILEINY 26 Jun 00:15:08 00:22:18 27° 291° (WNW) 00:29:33 435.215
VELOX 1 26 Jun 00:29:18 00:33:30 47° 73° (ENE) 00:37:43 145.980
50 SAT 26 Jun 00:29:40 00:31:55 17° 69° (ENE) 00:34:10 437.505
ESTCUBE 1 26 Jun 00:29:48 00:33:59 37° 262° (W) 00:38:11 437.505/2401.250
EO-79 26 Jun 00:30:01 00:33:51 32° 97° (E) 00:37:40 145.935-145.965
SO-50 26 Jun 00:30:46 00:34:55 36° 245° (WSW) 00:39:04 436.795
NO-84 26 Jun 00:35:42 00:37:12 12° 344° (NNW) 00:38:42 435.350 FM
RS-15 26 Jun 00:39:44 00:49:23 25° 333° (NNW) 00:59:05 29.354- 29.394
DUCHIFAT 1 26 Jun 00:43:24 00:47:20 36° 98° (E) 00:51:15 145.980
SPROUT 26 Jun 00:46:55 00:51:11 83° 78° (ENE) 00:55:29 437.525
DX 1 26 Jun 00:48:13 00:51:44 25° 68° (ENE) 00:55:15 434.975-435.025
UNISAT 6 26 Jun 00:50:38 00:51:29 10° 299° (WNW) 00:52:20 437.425
NANOSAT C BR1 26 Jun 00:52:00 00:56:11 52° 100° (E) 01:00:19 145.865
UKube-1 26 Jun 01:04:24 01:07:55 25° 69° (ENE) 01:11:26 .
POLYITAN 1 26 Jun 01:30:14 01:34:22 48° 287° (WNW) 01:38:28 437.675
FO-29 26 Jun 01:36:49 01:37:54 10° 309° (NW) 01:39:00 435.910
QB50P2 26 Jun 01:41:19 01:45:10 33° 289° (WNW) 01:49:00 145.880/145.840
AIST 2D 26 Jun 01:45:30 01:46:16 11° 294° (WNW) 01:47:01 435.315
BUGSAT 1 26 Jun 01:51:21 01:55:36 65° 102° (ESE) 01:59:46 437.445
50 SAT 26 Jun 02:01:50 02:04:32 22° 264° (W) 02:07:14 437.505
EO-79 26 Jun 02:06:14 02:09:23 20° 292° (WNW) 02:12:31 145.935-145.965
VELOX 1 26 Jun 02:07:55 02:10:11 14° 268° (W) 02:12:27 145.980
Oscar 19 26 Jun 02:15:44 02:20:35 41° 99° (E) 02:25:23 437.125/150
DUCHIFAT 1 26 Jun 02:19:50 02:22:42 18° 293° (WNW) 02:25:34 145.980
DX 1 26 Jun 02:24:11 02:27:48 26° 264° (W) 02:31:27 434.975-435.025
NANOSAT C BR1 26 Jun 02:29:26 02:31:25 13° 295° (WNW) 02:33:22 145.865
ITUPSAT 1 26 Jun 02:32:35 02:36:18 23° 67° (ENE) 02:40:02 437.325
UKube-1 26 Jun 02:40:15 02:43:50 26° 264° (W) 02:47:26 .
BEESAT 26 Jun 02:41:48 02:45:53 28° 68° (ENE) 02:49:57 436.000
RS-15 26 Jun 03:00:03 03:08:14 19° 10° (N) 03:16:15 29.354- 29.394
Gurwin Techsat 1B 26 Jun 03:13:06 03:18:28 90° 219° (SW) 03:23:47 435.225
AO-7 26 Jun 03:18:00 03:23:15 18° 92° (E) 03:28:27 .
BUGSAT 1 26 Jun 03:29:21 03:30:21 11° 297° (WNW) 03:31:22 437.445
MOZHAYETS 4 26 Jun 03:44:15 03:48:53 78° 75° (ENE) 03:53:32
NO-84 26 Jun 03:52:37 03:55:41 18° 26° (NNE) 03:58:45 435.350 FM
Oscar 19 26 Jun 03:55:41 03:59:36 23° 294° (WNW) 04:03:30 437.125/150
ITUPSAT 1 26 Jun 04:09:28 04:13:53 36° 262° (W) 04:18:20 437.325
BEESAT 26 Jun 04:19:27 04:23:33 28° 264° (W) 04:27:40 436.000
CUBESAT XI-V 26 Jun 04:27:09 04:31:27 39° 72° (ENE) 04:35:46 437.345
AO-85 26 Jun 04:27:15 04:28:33 11° 43° (NE) 04:29:53 145.980
ITAMSAT 1 26 Jun 04:33:22 04:38:35 65° 102° (ESE) 04:43:46 435.822/435.867
Gurwin Techsat 1B 26 Jun 04:55:57 04:57:35 11° 301° (WNW) 04:59:13 435.225
AO-7 26 Jun 05:08:27 05:16:53 87° 288° (WNW) 05:25:16 .
KKS-1 26 Jun 05:13:35 05:18:00 89° 73° (ENE) 05:22:27 437.445
RS-15 26 Jun 05:14:08 05:25:31 42° 43° (NE) 05:36:19 29.354- 29.394
NO-84 26 Jun 05:29:28 05:33:52 84° 46° (NE) 05:38:07 435.350 FM
DOVE 4 26 Jun 05:36:08 05:38:46 14° 92° (E) 05:41:27 437.250
STARS 26 Jun 05:41:29 05:45:51 75° 75° (ENE) 05:50:15 437.465
BEESAT 3 26 Jun 05:41:58 05:45:32 30° 52° (NE) 05:49:01 437.485
AO-85 26 Jun 06:05:16 06:09:25 85° 241° (WSW) 06:13:53 145.980
CUBESAT XI-V 26 Jun 06:05:43 06:08:57 19° 267° (W) 06:12:11 437.345
ITAMSAT 1 26 Jun 06:14:28 06:17:28 16° 298° (WNW) 06:20:27 435.822/435.867
XW-2F 26 Jun 06:27:29 06:29:43 15° 93° (E) 06:31:56 145.980 - 146.000
XW-2D 26 Jun 06:31:34 06:34:16 19° 94° (E) 06:36:57 145.860 - 145.880
XW-2B 26 Jun 06:40:18 06:43:21 23° 95° (E) 06:46:22 145.730 - 145.750
LilacSat-2 26 Jun 06:40:20 06:43:30 25° 96° (E) 06:46:38 437.200
BEESAT 2 26 Jun 06:42:14 06:46:09 45° 55° (NE) 06:50:02 435.950
STRAND 1 26 Jun 06:55:20 06:59:33 26° 67° (ENE) 07:03:47 437.568
XW-2C 26 Jun 06:55:27 06:58:58 36° 98° (E) 07:02:26 145.795 - 145.815
AO-7 26 Jun 07:03:01 07:08:29 20° 308° (NW) 07:13:57 .
O/OREOS (USA 219) 26 Jun 07:05:22 07:08:59 23° 60° (ENE) 07:12:34 437.305
KAITUO 1B 26 Jun 07:07:49 07:11:19 39° 98° (E) 07:14:47 145.475/437.950
NO-84 26 Jun 07:09:15 07:10:50 12° 240° (WSW) 07:12:23 435.350 FM
DOVE 4 26 Jun 07:11:50 07:16:43 62° 285° (WNW) 07:21:50 437.250
BEESAT 3 26 Jun 07:19:50 07:22:56 22° 248° (WSW) 07:25:59 437.485
CUTE-I 26 Jun 07:21:03 07:26:24 60° 101° (ESE) 07:31:42 437.470
RS-15 26 Jun 07:26:49 07:38:39 64° 247° (WSW) 07:49:51 29.354- 29.394
Tancredo 1 26 Jun 07:29:40 07:32:13 25° 133° (SE) 07:34:48 437.200
NUDT-PHONESAT 26 Jun 07:42:21 07:46:01 68° 284° (WNW) 07:49:39 437.300
CUTE 1.7 + AOD 2 26 Jun 07:45:33 07:48:46 21° 94° (E) 07:51:59 437.475
ISS 26 Jun 07:57:37 08:00:20 24° 132° (SE) 08:03:04 437.550
XW-2F 26 Jun 08:00:35 08:03:55 30° 288° (WNW) 08:07:12 145.980 - 146.000
CUBEBUG 2 26 Jun 08:04:43 08:08:07 20° 93° (E) 08:11:25 437.445
XW-2D 26 Jun 08:05:18 08:08:26 25° 289° (WNW) 08:11:31 145.860 - 145.880
XW-2B 26 Jun 08:14:33 08:17:24 21° 291° (WNW) 08:20:14 145.730 - 145.750
LilacSat-2 26 Jun 08:14:51 08:17:36 19° 291° (WNW) 08:20:20 437.200
AAUSAT CUBESAT 2 26 Jun 08:16:24 08:18:21 13° 92° (E) 08:20:17 437.432
HO-68 26 Jun 08:18:33 08:25:34 54° 101° (E) 08:32:32 435.675
FO-29 26 Jun 08:18:35 08:19:30 10° 51° (NE) 08:20:26 435.910
XW-2A 26 Jun 08:20:22 08:23:33 36° 98° (E) 08:26:41 145.665 - 145.685
BEESAT 2 26 Jun 08:21:19 08:23:30 14° 251° (WSW) 08:25:39 435.950
YUBILEINY 26 Jun 08:28:59 08:36:21 28° 69° (ENE) 08:43:37 435.215
XW-2C 26 Jun 08:30:53 08:32:48 14° 293° (WNW) 08:34:43 145.795 - 145.815
ZACube-1 26 Jun 08:31:41 08:32:56 11° 90° (E) 08:34:10 437.345
STRAND 1 26 Jun 08:33:52 08:38:32 35° 263° (W) 08:43:14 437.568
UWE-3 26 Jun 08:36:28 08:40:13 25° 94° (E) 08:43:52 435.000/436.395/437.385
M-CUBED/EXP-1 PRIME 26 Jun 08:43:20 08:44:34 12° 62° (ENE) 08:45:48 437.505
KAITUO 1B 26 Jun 08:43:22 08:44:56 12° 294° (WNW) 08:46:27 145.475/437.950
O/OREOS (USA 219) 26 Jun 08:44:28 08:48:22 30° 256° (WSW) 08:52:16 437.305
SEEDS 26 Jun 09:01:27 09:05:37 76° 284° (WNW) 09:09:45 437.485
CUTE-I 26 Jun 09:02:29 09:05:54 17° 297° (WNW) 09:09:20 437.470
Tancredo 1 26 Jun 09:05:05 09:07:45 27° 330° (NNW) 09:10:25 437.200
PRISM 26 Jun 09:06:19 09:07:09 11° 63° (ENE) 09:07:58 437.425
CUTE 1.7 + AOD 2 26 Jun 09:20:59 09:24:35 28° 290° (WNW) 09:28:10 437.475
TIGRISAT 26 Jun 09:26:41 09:29:58 19° 66° (ENE) 09:33:16 435.000
AO-73 26 Jun 09:29:42 09:33:59 47° 99° (E) 09:38:08 145.935
ISS 26 Jun 09:33:44 09:36:43 32° 329° (NNW) 09:39:44 437.550
CUBEBUG 2 26 Jun 09:40:29 09:44:50 38° 289° (WNW) 09:49:04 437.445
RS-15 26 Jun 09:45:35 09:48:23 11° 267° (W) 09:51:12 29.354- 29.394
AAUSAT CUBESAT 2 26 Jun 09:50:06 09:54:01 44° 286° (WNW) 09:57:55 437.432
XW-2A 26 Jun 09:54:54 09:55:55 11° 293° (WNW) 09:56:54 145.665 - 145.685
Oscar 11 26 Jun 09:55:44 10:00:03 72° 101° (ESE) 10:04:19 .
FO-29 26 Jun 09:57:00 10:02:57 64° 72° (ENE) 10:09:44 435.910
ZACube-1 26 Jun 10:05:13 10:09:36 59° 286° (WNW) 10:13:52 437.345
HO-68 26 Jun 10:06:59 10:12:52 29° 298° (WNW) 10:18:45 435.675
UNISAT 6 26 Jun 10:07:35 10:12:04 56° 74° (ENE) 10:16:40 437.425
UWE-3 26 Jun 10:12:41 10:16:37 28° 290° (WNW) 10:20:26 435.000/436.395/437.385
M-CUBED/EXP-1 PRIME 26 Jun 10:15:45 10:18:45 32° 256° (WSW) 10:21:44 437.505
EO-88 26 Jun 10:20:40 10:23:24 20° 95° (E) 10:26:06 145.990 - 145.960
YUBILEINY 26 Jun 10:25:01 10:33:39 60° 269° (W) 10:42:11 435.215
PRISM 26 Jun 10:37:54 10:41:52 59° 258° (WSW) 10:45:54 437.425
AIST 2D 26 Jun 10:44:31 10:46:09 13° 68° (ENE) 10:47:49 435.315
QB50P2 26 Jun 10:58:41 11:00:31 13° 64° (ENE) 11:02:21 145.880/145.840
TIGRISAT 26 Jun 11:01:59 11:06:17 40° 262° (W) 11:10:42 435.000
AO-73 26 Jun 11:07:15 11:09:45 15° 295° (WNW) 11:12:14 145.935
DELFI C3 26 Jun 11:08:26 11:12:19 60° 284° (WNW) 11:16:12 145.870
ISS 26 Jun 11:13:21 11:14:00 10° 347° (NNW) 11:14:40 437.550
PCSat 26 Jun 11:15:47 11:19:34 20° 105° (ESE) 11:23:21 145.827
EO-79 26 Jun 11:21:21 11:24:30 20° 68° (ENE) 11:27:39 145.935-145.965
DUCHIFAT 1 26 Jun 11:33:59 11:37:17 23° 68° (ENE) 11:40:37 145.980
NANOSAT C BR1 26 Jun 11:42:32 11:46:17 31° 70° (ENE) 11:50:04 145.865
FO-29 26 Jun 11:44:34 11:48:42 19° 272° (W) 11:53:10 435.910
UNISAT 6 26 Jun 11:46:57 11:49:07 13° 270° (W) 11:51:19 437.425
EO-88 26 Jun 11:54:06 11:56:59 22° 290° (WNW) 11:59:51 145.990 - 145.960
LO-87 26 Jun 12:12:51 12:16:28 70° 100° (E) 12:20:06 145.935 - 145.965
AIST 2D 26 Jun 12:15:46 12:19:01 34° 262° (W) 12:22:18 435.315
POLYITAN 1 26 Jun 12:20:36 12:24:51 82° 257° (WSW) 12:29:10 437.675
ESTCUBE 1 26 Jun 12:23:14 12:27:35 48° 100° (E) 12:31:54 437.505/2401.250
QB50P2 26 Jun 12:31:38 12:35:48 55° 260° (W) 12:40:00 145.880/145.840
SPROUT 26 Jun 12:35:14 12:37:51 16° 93° (E) 12:40:26 437.525
BUGSAT 1 26 Jun 12:39:25 12:43:12 35° 71° (ENE) 12:47:02 437.445
Gurwin Techsat 1B 26 Jun 12:55:37 12:58:40 16° 62° (ENE) 13:01:43 435.225
EO-79 26 Jun 12:56:15 13:00:01 31° 263° (W) 13:03:51 145.935-145.965
PCSat 26 Jun 12:57:13 13:02:30 53° 302° (WNW) 13:07:50 145.827
DUCHIFAT 1 26 Jun 13:09:10 13:12:47 28° 264° (W) 13:16:28 145.980
NANOSAT C BR1 26 Jun 13:18:54 13:22:01 20° 266° (W) 13:25:08 145.865
50 SAT 26 Jun 13:25:19 13:27:55 20° 96° (E) 13:30:31 437.505
Oscar 19 26 Jun 13:30:59 13:35:58 52° 72° (ENE) 13:40:58 437.125/150
Tancredo 1 26 Jun 13:54:59 13:57:28 22° 28° (NNE) 13:59:56 437.200
VELOX 1 26 Jun 13:56:39 14:01:03 68° 285° (WNW) 14:05:28 145.980
ESTCUBE 1 26 Jun 14:01:21 14:03:58 15° 295° (WNW) 14:06:33 437.505/2401.250
SPROUT 26 Jun 14:09:52 14:13:55 41° 287° (WNW) 14:17:56 437.525
DX 1 26 Jun 14:12:45 14:17:03 56° 101° (E) 14:21:21 434.975-435.025
ITAMSAT 1 26 Jun 14:15:22 14:16:20 10° 59° (ENE) 14:17:19 435.822/435.867
AO-7 26 Jun 14:15:31 14:21:51 25° 55° (NE) 14:28:11 .
BUGSAT 1 26 Jun 14:15:57 14:18:39 17° 267° (W) 14:21:23 437.445
ISS 26 Jun 14:26:27 14:29:13 24° 28° (NNE) 14:31:57 437.550
UKube-1 26 Jun 14:27:40 14:31:55 54° 101° (E) 14:36:09 .
JUGNU 26 Jun 14:28:41 14:30:52 12° 177° (S) 14:33:03 437.505
Gurwin Techsat 1B 26 Jun 14:32:45 14:38:01 66° 258° (WSW) 14:43:19 435.225
SO-50 26 Jun 14:42:53 14:47:27 81° 301° (WNW) 14:52:00 436.795
50 SAT 26 Jun 14:58:06 15:00:35 19° 290° (WNW) 15:03:03 437.505
Oscar 19 26 Jun 15:12:16 15:15:34 17° 267° (W) 15:18:52 437.125/150
Tancredo 1 26 Jun 15:30:17 15:33:07 36° 225° (SW) 15:35:55 437.200
MOZHAYETS 4 26 Jun 15:41:35 15:44:57 20° 94° (E) 15:48:17
ITAMSAT 1 26 Jun 15:49:45 15:54:57 86° 74° (ENE) 16:00:12 435.822/435.867
DX 1 26 Jun 15:50:44 15:52:44 13° 296° (WNW) 15:54:44 434.975-435.025
ISS 26 Jun 16:02:40 16:05:47 40° 225° (SW) 16:08:54 437.550
UKube-1 26 Jun 16:05:27 16:07:27 13° 296° (WNW) 16:09:26 .
AO-7 26 Jun 16:05:29 16:13:47 75° 254° (WSW) 16:22:10 .
ITUPSAT 1 26 Jun 16:10:51 16:15:37 63° 101° (ESE) 16:20:19 437.325
SRMSAT 26 Jun 16:16:55 16:18:01 10° 172° (S) 16:19:06 437.500
JUGNU 26 Jun 16:17:47 16:18:58 11° 188° (S) 16:20:09 437.505
BEESAT 26 Jun 16:20:01 16:24:50 81° 104° (ESE) 16:29:35 436.000
SO-50 26 Jun 16:27:06 16:28:37 11° 320° (NW) 16:30:08 436.795
CUBESAT XI-V 26 Jun 16:27:50 16:28:37 10° 90° (E) 16:29:25 437.345
CUTE-I 26 Jun 17:06:24 17:07:30 11° 59° (ENE) 17:08:35 437.470
KKS-1 26 Jun 17:06:46 17:09:57 19° 94° (E) 17:13:08 437.445
MOZHAYETS 4 26 Jun 17:18:00 17:22:11 36° 289° (WNW) 17:26:19
LilacSat-2 26 Jun 17:22:36 17:23:53 11° 66° (ENE) 17:25:08 437.200
XW-2B 26 Jun 17:22:37 17:23:09 10° 65° (ENE) 17:23:42 145.730 - 145.750
STARS 26 Jun 17:33:33 17:36:08 15° 93° (E) 17:38:42 437.465
XW-2C 26 Jun 17:36:12 17:38:34 16° 68° (ENE) 17:40:55 145.795 - 145.815
KAITUO 1B 26 Jun 17:47:14 17:49:36 16° 68° (ENE) 17:51:59 145.475/437.950
ITUPSAT 1 26 Jun 17:50:30 17:52:52 14° 297° (WNW) 17:55:14 437.325
BEESAT 26 Jun 18:00:45 18:01:53 11° 299° (WNW) 18:03:01 436.000
CUBESAT XI-V 26 Jun 18:01:51 18:06:25 68° 284° (WNW) 18:10:58 437.345
SRMSAT 26 Jun 18:04:08 18:06:16 12° 183° (S) 18:08:24 437.500
AO-7 26 Jun 18:04:46 18:07:46 12° 271° (W) 18:10:47 .
DOVE 4 26 Jun 18:16:10 18:20:17 70° 258° (WSW) 18:24:34 437.250
NUDT-PHONESAT 26 Jun 18:19:47 18:23:19 39° 73° (ENE) 18:26:50 437.300
CUTE 1.7 + AOD 2 26 Jun 18:37:51 18:39:59 14° 65° (ENE) 18:42:06 437.475
XW-2F 26 Jun 18:39:03 18:42:52 87° 264° (W) 18:46:42 145.980 - 146.000
CUTE-I 26 Jun 18:41:21 18:46:40 84° 75° (ENE) 18:52:03 437.470
KKS-1 26 Jun 18:42:28 18:46:36 37° 289° (WNW) 18:50:42 437.445
XW-2D 26 Jun 18:43:58 18:47:47 68° 259° (W) 18:51:36 145.860 - 145.880
HO-68 26 Jun 18:45:49 18:52:09 35° 64° (ENE) 18:58:30 435.675
XW-2A 26 Jun 18:52:25 18:53:13 11° 66° (ENE) 18:54:00 145.665 - 145.685
XW-2B 26 Jun 18:53:05 18:56:51 54° 261° (W) 19:00:37 145.730 - 145.750
LilacSat-2 26 Jun 18:53:56 18:57:42 48° 261° (W) 19:01:27 437.200
CUBEBUG 2 26 Jun 19:01:59 19:04:32 15° 64° (ENE) 19:07:05 437.445
STARS 26 Jun 19:08:26 19:12:40 45° 288° (WNW) 19:16:53 437.465
XW-2C 26 Jun 19:08:58 19:12:28 33° 263° (W) 19:15:58 145.795 - 145.815
KAITUO 1B 26 Jun 19:19:57 19:23:20 31° 263° (W) 19:26:44 145.475/437.950
UWE-3 26 Jun 19:32:13 19:35:21 18° 66° (ENE) 19:38:31 435.000/436.395/437.385
RS-15 26 Jun 19:37:46 19:46:48 26° 100° (E) 19:55:57 29.354- 29.394
SEEDS 26 Jun 19:51:09 19:55:16 58° 75° (ENE) 19:59:23 437.485
NUDT-PHONESAT 26 Jun 19:55:48 19:57:22 12° 268° (W) 19:58:55 437.300
PCSat 26 Jun 20:04:40 20:07:37 14° 44° (NE) 20:10:32 145.827
